TimeAWST,TemperatureF,Dew PointF,Humidity,Sea Level PressureIn,VisibilityMPH,Wind Direction,Wind SpeedMPH,Gust SpeedMPH,PrecipitationIn,Events,Conditions,WindDirDegrees,DateUTC
12:00 AM,67,61,74,29.96,,ENE,8.9,,,,,70,2013-08-27 16:00:00
12:00 AM,66.2,60.8,83,29.95,6.2,ENE,4.6,-,N/A,,Unknown,70,2013-08-27 16:00:00
12:16 AM,68.0,62.6,83,29.95,1.4,ESE,3.5,-,N/A,,Unknown,120,2013-08-27 16:16:00
12:30 AM,66.2,62.6,88,29.95,0.2,Calm,Calm,-,N/A,,Unknown,0,2013-08-27 16:30:00
1:00 AM,66.2,62.6,88,29.95,0.4,SSW,3.5,-,N/A,,Unknown,210,2013-08-27 17:00:00
1:19 AM,66.2,60.8,83,29.95,6.2,SSW,1.2,-,N/A,,Unknown,200,2013-08-27 17:19:00
1:22 AM,66.2,60.8,83,29.95,-9999.0,Calm,Calm,-,N/A,,Unknown,0,2013-08-27 17:22:00
1:30 AM,66.2,60.8,83,29.95,0.3,Calm,Calm,-,N/A,,Unknown,0,2013-08-27 17:30:00
2:00 AM,65,62,86,29.94,,Calm,Calm,,,,,,2013-08-27 18:00:00
2:00 AM,64.4,62.6,94,29.92,0.2,Calm,Calm,-,N/A,,Unknown,0,2013-08-27 18:00:00
2:28 AM,62.6,59.0,88,29.92,6.2,Calm,Calm,-,N/A,,Unknown,0,2013-08-27 18:28:00
2:30 AM,62.6,59.0,88,29.92,6.2,Calm,Calm,-,N/A,,Unknown,0,2013-08-27 18:30:00
3:00 AM,64,61,86,29.92,,Calm,Calm,,,,,,2013-08-27 19:00:00
3:00 AM,64.4,60.8,88,29.92,6.2,Calm,Calm,-,N/A,,Unknown,0,2013-08-27 19:00:00
3:30 AM,64.4,59.0,83,29.92,6.2,Calm,Calm,-,N/A,,Unknown,0,2013-08-27 19:30:00
4:00 AM,62.6,59.0,88,29.92,6.2,North,4.6,-,N/A,,Unknown,360,2013-08-27 20:00:00
4:30 AM,62.6,59.0,88,29.95,1.6,North,3.5,-,N/A,,Unknown,360,2013-08-27 20:30:00
4:50 AM,60.8,60.8,100,29.95,6.2,NNW,3.5,-,N/A,,Unknown,330,2013-08-27 20:50:00
5:00 AM,62,60,89,29.95,,NNW,6.7,,,,,340,2013-08-27 21:00:00
5:00 AM,62.6,59.0,88,29.95,6.2,NNW,3.5,-,N/A,,Unknown,340,2013-08-27 21:00:00
5:30 AM,62.6,60.8,94,29.95,6.2,WNW,3.5,-,N/A,,Unknown,290,2013-08-27 21:30:00
6:00 AM,64,61,88,29.97,6,SSW,8.9,,,,Partly Cloudy,200,2013-08-27 22:00:00
6:00 AM,64.4,60.8,88,29.98,6.2,SSW,4.6,-,N/A,,Unknown,200,2013-08-27 22:00:00
6:30 AM,66.2,62.6,88,29.98,6.2,East,2.3,-,N/A,,Unknown,90,2013-08-27 22:30:00
7:00 AM,71.6,62.6,73,29.98,6.2,SE,2.3,-,N/A,,Unknown,130,2013-08-27 23:00:00
7:30 AM,75.2,60.8,61,29.98,6.2,SW,3.5,-,N/A,,Unknown,220,2013-08-27 23:30:00
8:00 AM,78,62,49,30.01,,SE,11.2,,,,,130,2013-08-28 00:00:00
8:00 AM,78.8,62.6,57,30.01,6.2,SE,5.8,-,N/A,,Unknown,130,2013-08-28 00:00:00
8:30 AM,82.4,60.8,48,30.01,6.2,SE,4.6,-,N/A,,Unknown,140,2013-08-28 00:30:00
9:00 AM,84,60,35,30.01,12,ESE,4.6,,,,Partly Cloudy,110,2013-08-28 01:00:00
9:00 AM,84.2,60.8,45,30.01,6.2,ESE,4.6,-,N/A,,Unknown,110,2013-08-28 01:00:00
9:30 AM,87.8,59.0,38,30.01,6.2,East,5.8,-,N/A,,Unknown,90,2013-08-28 01:30:00
10:00 AM,89.6,55.4,31,29.98,6.2,SE,5.8,-,N/A,,Unknown,140,2013-08-28 02:00:00
10:30 AM,91.4,53.6,28,29.98,6.2,NE,5.8,-,N/A,,Unknown,50,2013-08-28 02:30:00
11:00 AM,92,51,16,29.96,,East,13.4,,,,,80,2013-08-28 03:00:00
11:00 AM,91.4,51.8,26,29.95,6.2,East,6.9,-,N/A,,Unknown,80,2013-08-28 03:00:00
11:30 AM,93.2,46.4,20,29.92,6.2,ENE,8.1,-,N/A,,Unknown,60,2013-08-28 03:30:00
12:00 PM,93,44,11,29.92,,ESE,15.7,,,,,110,2013-08-28 04:00:00
12:00 PM,93.2,44.6,19,29.92,6.2,ESE,8.1,-,N/A,,Unknown,110,2013-08-28 04:00:00
12:30 PM,95.0,44.6,18,29.89,6.2,North,5.8,-,N/A,,Unknown,350,2013-08-28 04:30:00
1:00 PM,96.8,46.4,18,29.89,6.2,ENE,6.9,-,N/A,,Unknown,70,2013-08-28 05:00:00
1:30 PM,95.0,46.4,19,29.86,6.2,WNW,5.8,-,N/A,,Unknown,300,2013-08-28 05:30:00
2:00 PM,97,46,10,29.86,,NNE,8.1,,,,,30,2013-08-28 06:00:00
2:00 PM,96.8,46.4,18,29.86,6.2,NNE,8.1,-,N/A,,Unknown,30,2013-08-28 06:00:00
2:30 PM,96.8,46.4,18,29.83,6.2,NNE,5.8,-,N/A,,Unknown,30,2013-08-28 06:30:00
3:00 PM,95,46,11,29.84,12,ESE,5.8,,,,Partly Cloudy,120,2013-08-28 07:00:00
3:00 PM,95.0,46.4,19,29.83,6.2,ESE,5.8,-,N/A,,Unknown,110,2013-08-28 07:00:00
3:30 PM,95.0,48.2,20,29.83,6.2,ENE,4.6,-,N/A,,Unknown,70,2013-08-28 07:30:00
4:00 PM,95.0,46.4,19,29.83,6.2,WSW,2.3,-,N/A,,Unknown,240,2013-08-28 08:00:00
4:30 PM,93.2,48.2,21,29.83,6.2,North,4.6,-,N/A,,Unknown,10,2013-08-28 08:30:00
5:00 PM,92,49,14,29.86,,North,8.9,,,,,350,2013-08-28 09:00:00
5:00 PM,91.4,50.0,24,29.86,6.2,North,4.6,-,N/A,,Unknown,350,2013-08-28 09:00:00
5:30 PM,87.8,50.0,27,29.86,6.2,North,5.8,-,N/A,,Unknown,360,2013-08-28 09:30:00
6:00 PM,83,52,24,29.87,,North,15.7,,,,,10,2013-08-28 10:00:00
6:00 PM,82.4,51.8,35,29.86,6.2,North,8.1,-,N/A,,Unknown,10,2013-08-28 10:00:00
6:30 PM,82.4,57.2,42,29.89,6.2,North,9.2,-,N/A,,Unknown,350,2013-08-28 10:30:00
7:00 PM,82.4,59.0,45,29.89,6.2,North,10.4,-,N/A,,Unknown,360,2013-08-28 11:00:00
7:30 PM,78.8,60.8,54,29.92,6.2,North,8.1,-,N/A,,Unknown,360,2013-08-28 11:30:00
8:00 PM,76,62,52,29.93,,North,13.4,,,,,10,2013-08-28 12:00:00
8:00 PM,77.0,62.6,61,29.92,6.2,North,6.9,-,N/A,,Unknown,10,2013-08-28 12:00:00
8:30 PM,75.2,62.6,65,29.92,6.2,North,4.6,-,N/A,,Unknown,360,2013-08-28 12:30:00
9:00 PM,75,62,54,29.93,,North,2.2,,,,,0,2013-08-28 13:00:00
9:00 PM,75.2,62.6,65,29.92,6.2,North,1.2,-,N/A,,Unknown,350,2013-08-28 13:00:00
9:30 PM,73.4,64.4,73,29.92,6.2,Calm,Calm,-,N/A,,Unknown,0,2013-08-28 13:30:00
10:00 PM,71.6,62.6,73,29.92,6.2,NNE,2.3,-,N/A,,Unknown,30,2013-08-28 14:00:00
10:30 PM,69.8,60.8,73,29.92,6.2,NE,1.2,-,N/A,,Unknown,40,2013-08-28 14:30:00
11:00 PM,69,63,77,29.93,,SSW,3.5,,,,,210,2013-08-28 15:00:00
11:00 PM,69.8,62.6,78,29.92,6.2,SSW,3.5,-,N/A,,Unknown,210,2013-08-28 15:00:00
11:30 PM,68.0,62.6,83,29.92,6.2,SW,2.3,-,N/A,,Unknown,220,2013-08-28 15:30:00